This is the latest recevied weather packets stored in our database for station/object KC7UNY-13. If no packets are shown the sender has not sent any weather packets the latest 10 day(s).
| Time | Temp. | Humidity | Pressure | Rain* | Wind** | Luminosity | Snow |
|---|---|---|---|---|---|---|---|
| 1777767441 | 34.44° C | 17% | 1009.7 hPa | 0 mm | - | 142 W/m² | - |
| 1777767138 | 35.56° C | 16% | 1009.7 hPa | 0 mm | - | 210 W/m² | - |
| 1777766836 | 34.44° C | 17% | 1009.7 hPa | 0 mm | - | 244 W/m² | - |
| 1777766533 | 33.89° C | 17% | 1009.7 hPa | 0 mm | - | 249 W/m² | - |
| 1777766230 | 33.89° C | 17% | 1009.8 hPa | 0 mm | - | 199 W/m² | - |
| 1777765928 | 33.89° C | 17% | 1009.9 hPa | 0 mm | - | 187 W/m² | - |
| 1777765624 | 35° C | 16% | 1009.9 hPa | 0 mm | - | 245 W/m² | - |
| 1777765321 | 33.89° C | 17% | 1009.7 hPa | 0 mm | - | 273 W/m² | - |
| 1777765017 | 34.44° C | 17% | 1009.8 hPa | 0 mm | - | 274 W/m² | - |
| 1777764714 | 33.89° C | 18% | 1010 hPa | 0 mm | - | 298 W/m² | - |
| 1777764409 | 33.89° C | 17% | 1010.2 hPa | 0 mm | - | 282 W/m² | - |
| 1777764107 | 34.44° C | 17% | 1010 hPa | 0 mm | - | 280 W/m² | - |
| 1777763804 | 33.89° C | 17% | 1010 hPa | 0 mm | - | 260 W/m² | - |
| 1777763501 | 34.44° C | 17% | 1010 hPa | 0 mm | - | 375 W/m² | - |
| 1777763199 | 33.89° C | 17% | 1010.1 hPa | 0 mm | - | 365 W/m² | - |
| 1777762897 | 33.89° C | 17% | 1010 hPa | 0 mm | - | 394 W/m² | - |
| 1777762593 | 34.44° C | 17% | 1010.1 hPa | 0 mm | - | 358 W/m² | - |
| 1777762291 | 35° C | 16% | 1010.1 hPa | 0 mm | - | 325 W/m² | - |
| 1777761986 | 35° C | 16% | 1010.3 hPa | 0 mm | - | 398 W/m² | - |
| 1777761683 | 34.44° C | 17% | 1010.3 hPa | 0 mm | - | 490 W/m² | - |
| 1777761381 | 34.44° C | 17% | 1010.7 hPa | 0 mm | - | 494 W/m² | - |
| 1777761079 | 34.44° C | 16% | 1010.4 hPa | 0 mm | - | 498 W/m² | - |
| 1777760776 | 34.44° C | 16% | 1010.6 hPa | 0 mm | - | 529 W/m² | - |
| 1777760472 | 33.89° C | 17% | 1010.8 hPa | 0 mm | - | 519 W/m² | - |
| 1777760168 | 34.44° C | 17% | 1010.7 hPa | 0 mm | - | 540 W/m² | - |
* Rain latest hour (hover to see other rain measurements)
** Current wind speed in m/s (hover to see current wind gust speed)